This demonstration page uses our WeatherBlox Daily Observations layout. Learn more.

Left ArrowRight Arrow

Hourly Observations for November 3, 2022

Temp ( °F °C ) Dew Point ( °F °C ) Humidity (%) Winds ( mph kmh ) Pressure ( in mb ) Visibility ( mi km ) Precip ( " mm )
12:55 am 00:55 Clear 62 16.8 50 9.9 64 64 S 16 26 29.94 1014 10 16 0.00 0.00
1:55 am 01:55 Cloudy 62 16.7 51 10.8 68 68 S 14 22 29.93 1013 10 16 0.00 0.00
2:55 am 02:55 Mostly Cloudy 61 15.9 52 11.1 73 73 S 14 22 29.92 1013 10 16 0.00 0.00
3:55 am 03:55 Mostly Cloudy 59 15.2 52 11.2 77 77 SSE 17 28 29.89 1012 10 16 0.00 0.00
4:55 am 04:55 Mostly Cloudy 59 15.1 52 11.3 78 78 SSE 14 22 29.87 1012 10 16 0.00 0.00
5:45 am 05:45 Cloudy 59 15 54 12 82 82 SE 12 19 29.86 1011 10 16 0.00 0.00
5:55 am 05:55 Mostly Cloudy 60 15.3 53 11.5 78 78 SE 12 19 29.86 1011 10 16 0.00 0.00
6:55 am 06:55 Cloudy 61 16.3 54 12.1 76 76 S 16 26 29.85 1011 10 16 0.00 0.00
7:55 am 07:55 Cloudy 62 16.9 54 12.4 75 75 S 16 26 29.83 1010 10 16 0.00 0.00
8:55 am 08:55 Cloudy 64 17.5 55 12.6 73 73 S 15 24 29.83 1010 10 16 0.00 0.00
9:55 am 09:55 Cloudy 65 18.1 55 13 72 72 S 17 28 29.82 1010 10 16 0.00 0.00
10:10 am 10:10 Cloudy 66 19 55 13 68 68 S 24 39 29.82 1010 10 16 0.00 0.00
10:55 am 10:55 Cloudy 66 18.8 55 13 69 69 S 22 35 29.81 1010 10 16 0.00 0.00
11:55 am 11:55 Mostly Cloudy 69 20.3 55 13 63 63 S 21 33 29.80 1009 10 16 0.00 0.00
12:55 pm 12:55 Mostly Cloudy 71 21.4 55 13 59 59 S 25 41 29.79 1009 10 16 0.00 0.00
1:55 pm 13:55 Mostly Cloudy 72 22.2 56 13.3 57 57 SSW 15 24 29.78 1008 10 16 0.00 0.00
2:55 pm 14:55 Partly Cloudy 75 23.9 55 12.8 50 50 S 22 35 29.75 1007 10 16 0.00 0.00
3:55 pm 15:55 Mostly Cloudy 76 24.3 54 12.2 47 47 S 17 28 29.75 1007 10 16 0.00 0.00
4:55 pm 16:55 Mostly Cloudy 76 24.2 55 12.5 48 48 SSW 14 22 29.72 1007 10 16 0.00 0.00
5:55 pm 17:55 Cloudy 74 23.5 55 12.8 51 51 SSW 9 15 29.74 1007 10 16 0.00 0.00
7:01 pm 19:01 Cloudy 73 23 55 13 53 53 WNW 15 24 29.77 1008 10 16 0.00 0.00
7:55 pm 19:55 Cloudy 58 14.4 40 4.7 52 52 NW 17 28 29.80 1009 7 11 0.00 0.00
8:55 pm 20:55 Cloudy 50 10.2 37 2.5 59 59 NW 18 30 29.86 1011 8 13 0.00 0.00
9:24 pm 21:24 Cloudy with Light Rain 50 10 37 3 62 62 NW 12 19 29.87 1012 10 16 0.00 0.00
9:33 pm 21:33 Cloudy 50 10 37 3 62 62 NW 13 20 29.87 1012 10 16 0.00 0.00
9:55 pm 21:55 Cloudy 49 9.2 37 2.7 64 64 NNW 13 20 29.87 1012 10 16 0.00 0.00
10:55 pm 22:55 Cloudy 48 8.7 37 2.5 65 65 NNW 10 17 29.89 1012 10 16 0.00 0.00
11:55 pm 23:55 Partly Cloudy 46 7.8 37 2.5 69 69 NW 18 30 29.88 1012 9 14 0.00 0.00

Powered by AerisWeather